CAPE
0 0 0 0 0 0 0 0 0 0 0 0 0 0 0 0 0 0 0 0 0 0 0 0 0 0 0 0 0 0 0 0 0 0 0 0 0 0 0 0 0 0 0 0 0
0 0 0 0 0 0 0 0 0 0 0 0 0 0 0 0 0 0 0 0 0 0 0 0 0 0 0 0 0 0 0 0 0 0 0 0 0 0 0 0 0 0 0 0 0
0 0 0 0 0 0 0 0 0 0 0 0 0 0 0 0 0 0 0 0 0 0 0 0 0 0 0 0 0 0 0 0 0 0 0 0 0 0 0 0 0 0 0 0 0
1 0 0 0 0 0 0 0 0 0 0 0 0 0 0 0 0 0 0 0 0 0 0 0 0 0 0 0 0 0 0 0 0 0 0 0 0 0 0 0 0 0 0 0 0
1 1 1 0 0 0 0 0 0 0 0 0 0 0 0 0 0 0 0 0 0 0 0 0 0 0 0 0 0 0 0 0 0 0 0 0 0 0 0 0 0 0 0 0 0
1 1 1 0 0 0 0 0 0 0 0 0 0 0 0 0 0 0 0 0 0 0 0 0 0 0 0 0 0 0 0 0 0 0 0 0 0 0 0 0 0 0 0 0 0
0 0 0 0 0 0 0 0 0 0 0 0 0 0 0 0 0 0 0 0 0 0 0 0 0 0 0 0 0 0 0 0 0 0 0 0 0 0 0 0 0 0 0 0 0
0 0 0 0 0 0 0 0 0 0 0 0 0 0 0 0 0 0 0 0 0 0 0 0 0 0 0 0 0 0 0 0 0 0 0 0 0 0 0 0 0 0 0 0 0
0 0 0 0 0 0 0 0 0 0 0 0 0 0 0 0 0 0 0 0 0 0 0 0 0 0 0 0 0 0 0 0 0 0 0 0 0 0 0 0 0 0 0 0 0
0 0 0 0 0 0 0 0 0 0 0 0 0 0 0 0 0 0 0 0 0 0 0 0 0 0 0 0 0 0 0 0 0 0 0 0 0 0 0 0 0 0 0 0 0
0 0 0 0 0 0 0 0 0 0 0 0 0 0 0 0 0 0 0 0 0 0 0 0 0 0 0 0 0 0 0 0 0 0 0 0 0 0 0 0 0 0 0 0 0
0 0 0 0 0 0 0 0 0 0 0 0 0 0 0 0 0 0 0 0 0 0 0 0 0 0 0 0 0 0 0 0 0 0 0 0 0 0 0 0 0 0 0 0 0
0 0 0 0 0 0 0 0 0 0 0 0 0 0 0 0 0 0 0 0 0 0 0 0 0 0 0 0 0 0 0 0 0 0 0 0 0 0 0 0 0 0 0 0 0
0 0 0 0 0 0 0 0 0 0 0 0 0 0 0 0 0 0 0 0 0 0 0 0 0 0 0 0 0 0 0 0 0 0 0 0 0 0 0 0 0 0 0 0 0
0 0 0 0 0 0 0 0 0 0 0 0 0 0 0 0 0 0 0 0 0 0 0 0 0 0 0 0 0 0 0 0 0 0 0 0 0 0 0 0 0 0 0 0 0
0 0 0 0 0 0 0 0 0 0 0 0 0 0 0 0 0 0 0 0 0 0 0 0 0 0 0 0 0 0 0 0 0 0 0 0 0 0 0 0 0 0 0 0 0
0 0 0 0 0 0 0 0 0 0 0 0 0 0 0 0 0 0 0 0 0 0 0 0 0 0 0 0 0 0 0 0 0 0 0 0 0 0 0 0 0 0 0 0 0
0 0 0 0 0 0 0 0 0 0 0 0 0 0 0 0 0 0 0 0 0 0 0 0 0 0 0 0 0 0 0 0 0 0 0 0 0 0 0 0 0 0 0 0 0
1 0 1 0 0 0 0 0 0 0 0 0 0 0 0 0 0 0 0 0 0 0 0 0 0 0 0 0 0 0 0 0 0 0 0 0 0 0 0 0 0 0 0 0 0
1 1 0 0 0 0 2 0 0 0 0 0 0 0 0 0 0 0 0 0 0 0 0 0 0 0 0 0 0 0 0 0 0 0 0 0 0 0 0 0 0 0 0 0 0
2 9 0 0 0 1 0 0 0 0 0 0 0 0 0 0 0 0 0 0 0 0 0 0 0 0 0 0 0 0 0 0 0 0 0 0 0 0 0 0 0 0 0 0 0
3 5 2 0 0 1 0 0 0 0 0 0 0 0 0 0 0 0 0 0 0 0 0 0 0 0 0 0 0 0 0 0 0 0 0 0 0 0 0 0 0 0 0 0 0
5 21 2 1 24 4 0 0 0 0 0 0 0 0 0 0 0 0 0 0 0 0 0 0 0 0 0 0 0 0 0 0 0 0 0 0 0 0 0 0 0 0 0 0 0
10 3 1 1 8 23 10 0 0 0 0 0 1 0 0 0 0 0 0 0 0 0 0 0 0 0 0 0 0 0 0 0 0 0 0 0 0 0 0 0 0 0 0 0 0
7 10 22 9 1 1 5 7 0 1 0 4 16 11 1 0 0 0 0 0 0 0 0 0 0 0 0 0 0 0 0 0 0 0 0 0 0 0 0 0 0 0 0 0 0
5 15 0 1 1 0 1 0 3 1 2 2 3 3 4 12 1 0 0 0 0 0 0 0 0 0 0 0 0 0 0 0 0 0 0 0 0 0 0 0 0 0 0 0 0
4 1 0 0 0 1 1 1 0 1 0 5 0 4 29 5 3 1 2 7 1 1 0 0 1 1 0 0 1 0 0 0 0 0 0 0 0 0 0 0 0 0 0 0 0
CIN
0 0 0 0 0 0 0 0 0 0 0 0 0 0 0 0 0 0 0 0 0 0 0 0 0 0 0 0 0 0 0 0 0 0 0 0 0 0 0 0 0 0 0 0 0
0 0 0 0 0 0 0 0 0 0 0 0 0 0 0 0 0 0 0 0 0 0 0 0 0 0 0 0 0 0 0 0 0 0 0 0 0 0 0 0 0 0 0 0 0
0 0 0 0 0 0 0 0 0 0 0 0 0 0 0 0 0 0 0 0 0 0 0 0 0 0 0 0 0 0 0 0 0 0 0 0 0 0 0 0 0 0 0 0 0
0 0 0 0 0 0 0 0 0 0 0 0 0 0 0 0 0 0 0 0 0 0 0 0 0 0 0 0 0 0 0 0 0 0 0 0 0 0 0 0 0 0 0 0 0
0 0 0 0 0 0 0 0 0 0 0 0 0 0 0 0 0 0 0 0 0 0 0 0 0 0 0 0 0 0 0 0 0 0 0 0 0 0 0 0 0 0 0 0 0
0 0 0 0 0 0 0 0 0 0 0 0 0 0 0 0 0 0 0 0 0 0 0 0 0 0 0 0 0 0 0 0 0 0 0 0 0 0 0 0 0 0 0 0 0
0 0 0 0 0 0 0 0 0 0 0 0 0 0 0 0 0 0 0 0 0 0 0 0 0 0 0 0 0 0 0 0 0 0 0 0 0 0 0 0 0 0 0 0 0
0 0 0 0 0 0 0 0 0 0 0 0 0 0 0 0 0 0 0 0 0 0 0 0 0 0 0 0 0 0 0 0 0 0 0 0 0 0 0 0 0 0 0 0 0
0 0 0 0 0 0 0 0 0 0 0 0 0 0 0 0 0 0 0 0 0 0 0 0 0 0 0 0 0 0 0 0 0 0 0 0 0 0 0 0 0 0 0 0 0
0 0 0 0 0 0 0 0 0 0 0 0 0 0 0 0 0 0 0 0 0 0 0 0 0 0 0 0 0 0 0 0 0 0 0 0 0 0 0 0 0 0 0 0 0
0 0 0 0 0 0 0 0 0 0 0 0 0 0 0 0 0 0 0 0 0 0 0 0 0 0 0 0 0 0 0 0 0 0 0 0 0 0 0 0 0 0 0 0 0
0 0 0 0 0 0 0 0 0 0 0 0 0 0 0 0 0 0 0 0 0 0 0 0 0 0 0 0 0 0 0 0 0 0 0 0 0 0 0 0 0 0 0 0 0
0 0 0 0 0 0 0 0 0 0 0 0 0 0 0 0 0 0 0 0 0 0 0 0 0 0 0 0 0 0 0 0 0 0 0 0 0 0 0 0 0 0 0 0 0
0 0 0 0 0 0 0 0 0 0 0 0 0 0 0 0 0 0 0 0 0 0 0 0 0 0 0 0 0 0 0 0 0 0 0 0 0 0 0 0 0 0 0 0 0
0 0 0 0 0 0 0 0 0 0 0 0 0 0 0 0 0 0 0 0 0 0 0 0 0 0 0 0 0 0 0 0 0 0 0 0 0 0 0 0 0 0 0 0 0
0 0 0 0 0 0 0 0 0 0 0 0 0 0 0 0 0 0 0 0 0 0 0 0 0 0 0 0 0 0 0 0 0 0 0 0 0 0 0 0 0 0 0 0 0
0 0 0 0 0 0 0 0 0 0 0 0 0 0 0 0 0 0 0 0 0 0 0 0 0 0 0 0 0 0 0 0 0 0 0 0 0 0 0 0 0 0 0 0 0
0 0 0 0 0 0 0 0 0 0 0 0 0 0 0 0 0 0 0 0 0 0 0 0 0 0 0 0 0 0 0 0 0 0 0 0 0 0 0 0 0 0 0 0 0
0 0 0 0 0 0 0 0 0 0 0 0 0 0 0 0 0 0 0 0 0 0 0 0 0 0 0 0 0 0 0 0 0 0 0 0 0 0 0 0 0 0 0 0 0
0 0 0 0 0 0 0 0 0 0 0 0 0 0 0 0 0 0 0 0 0 0 0 0 0 0 0 0 0 0 0 0 0 0 0 0 0 0 0 0 0 0 0 0 0
0 -1 0 0 0 0 0 0 0 0 0 0 0 0 0 0 0 0 0 0 0 0 0 0 0 0 0 0 0 0 0 0 0 0 0 0 0 0 0 0 0 0 0 0 0
0 -8 0 0 0 0 0 0 0 0 0 0 0 0 0 0 0 0 0 0 0 0 0 0 0 0 0 0 0 0 0 0 0 0 0 0 0 0 0 0 0 0 0 0 0
0 -15 0 0 -1 -7 0 0 0 0 0 -1 -3 0 0 0 0 0 0 0 0 0 0 0 0 0 0 0 0 0 0 0 0 0 0 0 0 0 0 0 0 0 0 0 0
0 -2 -2 0 -14 -4 -8 0 0 0 0 0 -7 -3 0 0 0 0 0 0 0 0 0 0 0 0 0 0 0 0 0 0 0 0 0 0 0 0 0 0 0 0 0 0 0
0 0 -2 -5 0 0 -5 -1 0 0 -3 -2 -2 -3 -1 0 0 0 0 0 0 0 0 0 0 0 0 0 0 0 0 0 0 0 0 0 0 0 0 0 0 0 0 0 0
-1 0 0 0 0 0 0 0 0 0 0 -1 -3 -4 -2 -18 -1 -1 -3 0 0 0 0 0 0 0 0 0 0 0 0 0 0 0 0 0 0 0 0 0 0 0 0 0 0
-4 0 0 0 0 0 0 0 0 0 0 -34 0 -2 -1 -4 -11 -13 -16 -3 -9 -3 0 0 0 0 0 0 0 0 0 0 0 0 0 0 0 0 0 0 0 0 0 0 0
Wind_Speed
24 25 25 26 26 26 27 27 27 27 26 26 25 24 21 19 18 14 9 11 12 13 15 15 15 14 13 13 13 14 14 12 11 13 14 14 11 11 11 8 7 5 8 14 7
26 26 27 27 28 28 28 29 29 28 28 28 28 26 23 21 17 8 10 10 11 12 14 14 15 13 14 14 14 13 14 15 17 17 13 13 9 10 12 5 3 4 9 9 5
27 28 28 29 29 30 30 30 31 30 30 30 29 27 24 21 21 17 12 8 9 11 15 17 17 14 14 13 14 14 15 20 20 18 17 15 11 9 10 4 4 1 2 2 2
29 30 30 31 31 32 32 32 32 32 32 32 31 28 24 19 24 17 13 11 10 10 13 15 16 16 18 14 13 19 16 18 20 20 19 17 17 13 6 3 14 14 8 2 2
31 31 32 33 33 34 34 34 34 34 34 34 30 26 22 22 23 15 14 13 12 12 14 14 15 17 21 23 19 18 23 22 20 20 20 20 16 16 12 7 5 5 10 3 3
32 33 34 35 35 36 37 36 36 35 35 34 29 23 23 28 18 13 14 14 14 13 15 15 18 21 25 24 23 27 26 27 26 21 22 23 23 19 18 8 6 7 7 6 6
33 34 35 36 37 38 39 39 38 37 36 31 25 21 27 27 18 16 15 18 16 17 18 16 21 20 24 25 24 25 31 31 27 25 26 23 29 20 14 18 16 12 8 9 9
33 33 35 36 38 39 41 41 41 40 32 26 21 22 29 21 18 19 17 19 17 17 19 19 18 21 22 25 27 28 28 33 30 18 22 21 35 25 20 17 15 15 17 17 14
32 33 35 37 38 40 41 43 42 34 27 21 22 23 32 19 21 17 15 21 17 17 18 18 19 22 21 26 32 24 30 27 25 17 23 23 36 29 23 21 20 21 22 22 21
32 33 35 37 38 39 41 41 31 28 24 22 23 26 22 25 21 18 16 15 19 17 20 19 21 25 23 23 30 31 28 28 24 21 28 34 32 29 26 30 30 28 28 27 25
32 33 35 37 38 38 35 30 29 28 24 24 23 24 21 20 19 19 16 16 18 20 24 21 25 24 24 24 27 30 33 33 25 26 30 30 34 33 26 28 27 24 25 30 27
32 32 35 37 38 35 28 29 27 28 40 31 31 29 27 23 27 23 16 22 23 27 24 28 30 26 31 31 35 37 39 35 39 37 33 29 28 30 31 31 24 23 21 24 32
33 33 34 37 36 29 28 27 27 29 33 35 31 31 29 23 29 24 16 24 27 28 26 31 32 26 31 32 35 36 37 38 37 40 33 33 32 26 27 20 19 19 21 22 24
32 32 33 38 28 30 26 27 25 26 39 37 27 26 25 23 30 22 15 20 24 29 28 34 33 34 37 40 36 45 35 39 40 38 37 25 46 25 27 31 28 22 17 20 28
31 30 30 28 32 30 27 26 26 26 45 25 20 19 19 17 23 22 19 22 26 25 23 30 29 28 31 34 31 40 33 35 35 36 40 35 41 38 27 31 25 19 15 27 26
31 30 27 28 26 27 26 25 25 30 44 24 20 23 24 22 25 24 22 22 26 27 29 32 28 27 29 28 26 27 32 35 35 36 44 33 35 49 31 29 26 22 22 26 20
31 30 26 25 29 23 24 26 34 38 25 30 28 25 27 26 26 24 25 26 27 30 34 33 33 30 27 31 28 28 32 41 41 38 46 33 36 37 29 23 24 24 22 24 17
30 31 29 25 25 23 25 30 43 35 33 36 35 36 38 30 32 29 31 34 30 32 37 39 44 25 26 28 31 30 29 35 47 46 53 43 48 43 35 33 27 21 24 15 10
33 30 31 29 25 24 27 37 44 41 39 44 42 41 40 37 36 33 37 41 36 29 38 41 43 30 28 30 28 33 36 32 42 46 53 47 47 40 33 29 22 21 15 12 10
36 35 39 27 17 23 31 42 43 40 39 42 46 40 45 41 38 37 40 40 40 34 33 43 52 40 35 34 36 33 31 38 36 49 53 57 52 44 34 31 22 15 15 17 15
40 44 38 20 23 33 45 46 52 49 44 48 49 51 52 52 47 47 45 43 35 34 29 38 43 50 37 41 42 38 42 39 38 41 52 61 49 31 26 25 19 18 18 18 18
41 48 28 22 42 44 53 49 46 56 45 48 45 47 55 57 54 51 53 45 36 30 38 33 40 50 51 38 37 37 43 39 47 50 45 52 55 32 34 29 26 25 17 20 24
44 45 30 31 57 55 51 55 54 59 57 48 50 48 47 52 53 48 51 46 49 41 38 35 40 54 55 52 41 44 42 42 44 48 54 57 58 33 34 29 22 29 28 27 31
41 50 40 41 50 58 59 60 63 54 58 54 51 46 50 53 51 54 52 52 47 46 46 35 45 48 55 49 35 35 38 42 45 52 57 56 58 56 54 49 52 51 44 42 40
39 47 44 50 51 55 56 56 61 63 55 52 51 52 52 59 57 56 57 58 55 51 47 39 49 47 49 54 57 54 53 49 50 47 54 60 57 59 60 55 57 54 52 44 49
44 44 42 47 50 53 54 60 62 62 58 60 60 57 54 59 58 66 56 58 56 50 47 43 54 49 55 51 54 58 54 53 51 53 58 57 66 53 58 60 60 54 52 48 48
34 33 40 48 53 56 55 53 52 51 53 56 60 61 63 61 59 60 60 61 57 53 55 51 55 58 66 56 56 62 53 53 55 53 51 57 54 51 52 49 51 48 50 49 45
Wind_Direction
323 325 325 324 324 326 328 328 328 328 330 329 329 332 337 346 354 12 41 34 38 33 29 28 36 45 48 47 46 42 38 37 39 34 39 32 43 35 22 30 30 34 5 356 64
322 322 323 323 323 324 324 325 325 325 325 326 325 326 332 335 346 352 360 8 14 16 12 18 20 24 19 23 26 27 17 20 12 11 17 18 29 21 13 34 6 5 2 12 58
318 320 320 320 321 322 322 322 323 323 322 322 323 325 330 337 335 340 352 348 357 1 349 347 348 359 356 359 359 3 356 352 350 354 354 355 1 12 0 2 359 339 166 52 88
316 316 317 317 317 317 318 319 320 320 322 321 322 324 328 335 320 345 357 353 345 347 342 343 343 341 338 338 342 332 335 335 338 340 341 341 343 347 332 293 6 354 349 179 206
312 313 313 313 312 312 313 315 316 317 317 318 322 326 328 319 315 334 340 339 336 331 326 328 326 324 321 325 326 319 323 324 326 326 328 328 324 329 322 316 286 268 335 313 259
308 309 309 310 309 308 308 309 312 314 314 315 320 325 317 308 328 337 333 331 325 320 317 317 321 320 315 314 313 321 316 315 318 316 317 318 316 320 326 328 303 299 311 306 284
309 308 309 308 307 307 306 305 307 310 313 319 322 321 309 306 323 325 323 319 318 315 309 313 315 313 322 316 318 317 313 313 310 306 311 317 308 300 290 314 320 322 305 298 290
309 309 309 308 307 304 302 301 303 305 316 321 323 318 306 317 320 315 316 315 316 315 311 317 315 311 310 316 313 313 314 312 318 308 310 314 306 316 312 303 300 310 316 314 300
309 310 310 310 308 306 304 300 301 310 317 322 319 313 305 322 312 313 313 310 315 316 315 316 312 306 311 307 307 308 307 309 314 306 309 302 305 316 319 311 308 308 311 312 307
308 310 311 312 311 310 307 305 313 314 314 316 311 309 305 306 311 316 316 314 314 314 311 307 305 300 303 299 300 308 305 309 309 314 303 300 297 304 303 304 304 306 308 308 304
308 310 312 313 313 312 317 320 316 313 308 301 307 304 311 315 316 308 316 310 311 306 301 299 294 287 292 290 294 300 301 301 290 306 304 296 294 298 299 301 302 299 302 307 304
308 311 312 314 314 314 320 316 317 314 303 298 294 292 299 303 299 295 300 295 293 290 291 295 280 288 296 295 297 298 299 298 304 309 306 299 291 298 299 299 292 296 295 299 309
306 309 311 313 314 319 317 316 317 316 307 304 296 293 291 287 289 283 272 289 289 286 282 280 291 300 296 295 296 293 294 298 299 306 305 305 296 288 299 280 275 274 286 300 309
305 308 312 314 315 318 319 323 323 322 307 307 305 303 299 297 295 296 272 284 284 284 284 287 288 284 287 287 292 292 295 298 300 302 301 306 301 296 307 307 306 300 292 314 312
303 306 309 317 311 313 316 320 321 320 299 318 320 328 325 307 314 308 303 292 277 284 288 290 293 290 287 289 292 294 298 298 301 299 300 294 302 305 304 305 303 303 304 317 316
299 302 306 307 309 313 318 318 314 303 289 307 320 317 313 310 308 314 308 301 304 289 285 286 296 294 292 299 296 299 299 298 299 298 291 292 293 301 302 306 311 310 312 318 319
296 296 297 304 304 317 319 306 298 286 308 302 303 305 303 303 304 302 301 294 294 297 293 294 282 290 290 291 295 293 296 295 294 291 291 302 292 287 308 311 310 310 305 319 321
302 300 292 293 302 305 303 292 282 291 283 295 297 296 293 296 293 292 294 291 285 290 295 294 293 281 286 281 293 288 284 286 291 293 294 297 291 296 301 298 297 294 311 319 324
303 300 294 296 294 299 288 275 278 289 294 290 291 293 290 289 290 290 286 287 290 277 286 292 289 293 289 291 284 289 282 288 289 293 294 292 296 302 301 298 295 301 309 318 317
296 293 287 294 291 293 280 275 283 291 295 293 291 289 289 289 286 285 287 291 287 282 280 290 289 287 289 290 286 283 291 286 285 287 287 290 296 298 304 303 297 303 302 309 314
292 288 288 282 284 280 273 277 282 284 289 286 285 288 287 287 288 287 285 288 294 296 282 288 287 285 286 281 281 281 280 281 285 281 284 289 293 309 301 315 306 303 305 309 310
286 282 283 275 275 276 272 278 282 281 284 286 287 284 280 284 287 286 284 286 308 304 292 292 293 286 283 291 287 280 278 274 275 281 280 280 266 296 304 302 304 306 306 311 308
284 284 281 276 274 273 278 278 279 279 278 282 281 281 283 283 285 283 282 283 286 289 294 296 292 289 289 286 286 285 282 276 276 278 274 275 274 293 290 302 306 308 304 303 304
285 281 282 276 275 275 275 277 277 279 278 276 280 281 280 278 277 283 283 285 285 285 290 289 281 279 278 282 296 295 289 283 275 274 275 275 278 282 285 289 291 294 296 296 299
284 280 279 277 279 278 278 276 276 277 276 281 281 273 275 279 280 277 279 280 283 284 286 288 283 277 276 279 281 282 281 277 280 278 276 281 280 284 288 292 292 293 295 298 298
283 284 285 281 281 281 279 278 280 281 277 277 275 278 278 274 274 279 280 280 281 287 282 279 281 281 279 276 275 276 279 280 273 271 275 279 282 281 289 291 291 293 293 296 298
292 292 289 281 279 279 278 282 284 288 287 284 284 279 277 278 279 277 276 279 281 280 280 277 278 281 280 279 280 276 271 270 276 277 275 276 275 283 286 286 290 295 295 296 295